Change the Weather History Date:

Tuesday, April 15, 2014

  Actual Average Record
Temperature  
Mean Temperature 77 °F 71 °F  
Max Temperature 89 °F 82 °F 96 °F (1922)
Min Temperature 65 °F 60 °F 41 °F (1907)
Degree Days  
Heating Degree Days 0 0  
Month to date heating degree days 0 11  
Since 1 July heating degree days 406 569  
Cooling Degree Days 12 6  
Month to date cooling degree days 122 83  
Year to date cooling degree days 379 305  
Growing Degree Days 26 (Base 50)    
Moisture  
Dew Point 67 °F    
Average Humidity 72    
Maximum Humidity 93    
Minimum Humidity 50    
Precipitation  
Precipitation 1.38 in 0.08 in 1.38 in (2014)
Month to date precipitation 2.30 1.48  
Year to date precipitation 11.86 9.98  
Sea Level Pressure  
Sea Level Pressure 29.87 in    
Wind  
Wind Speed 11 mph (SW)    
Max Wind Speed 28 mph    
Max Gust Speed 35 mph    
Visibility 9 miles    
Events Fog , Rain , Thunderstorm    
T = Trace of Precipitation, MM = Missing Value Source: NWS Daily Summary

Daily Weather History Graph

Daily Weather History Graph

Search for Another Location

Airport or City:

Trip Planner

Search our weather history database for the weather conditions in past years. The results will help you decide how hot, cold, wet, or windy it might be!

Date:

Astronomy

Apr. 15, 2014 Rise Set
Actual Time 6:59 AM EDT 7:50 PM EDT
Civil Twilight 6:35 AM EDT 8:15 PM EDT
Nautical Twilight 6:07 AM EDT 8:43 PM EDT
Astronomical Twilight 5:38 AM EDT 9:12 PM EDT
Moon 8:27 PM EDT (4/15) 7:07 AM EDT (4/15)
Length of Visible Light 13h 39m
Length of Day
12h 51m
Full, 100% of the Moon is Illuminated
Apr 15
Full
Apr 22
Last Quarter
Apr 29
New
May 6
First Quarter
May 14
Full

Hourly Weather History & Observations

Time (EDT) Temp. Heat Index Dew Point Humidity Pressure Visibility Wind Dir Wind Speed Gust Speed Precip Events Conditions
12:53 AM 64.9 °F - 60.1 °F 84% 29.91 in 10.0 mi South 4.6 mph - N/A   Partly Cloudy
1:53 AM 69.1 °F - 61.0 °F 75% 29.91 in 10.0 mi Calm Calm - N/A   Scattered Clouds
2:53 AM 69.1 °F - 63.0 °F 81% 29.90 in 10.0 mi WSW 3.5 mph - N/A   Scattered Clouds
3:53 AM 64.9 °F - 61.0 °F 87% 29.90 in 10.0 mi South 3.5 mph - N/A   Partly Cloudy
4:53 AM 66.0 °F - 61.0 °F 84% 29.88 in 10.0 mi SSE 5.8 mph - N/A   Partly Cloudy
5:53 AM 66.0 °F - 62.1 °F 87% 29.88 in 10.0 mi Calm Calm - N/A   Scattered Clouds
6:53 AM 66.9 °F - 64.0 °F 90% 29.88 in 10.0 mi SSE 6.9 mph - N/A   Scattered Clouds
7:53 AM 71.1 °F - 68.0 °F 90% 29.90 in 10.0 mi South 10.4 mph - N/A   Mostly Cloudy
8:10 AM 72.0 °F - 68.0 °F 87% 29.90 in 10.0 mi South 12.7 mph - N/A   Mostly Cloudy
8:53 AM 75.0 °F - 69.1 °F 82% 29.89 in 10.0 mi South 13.8 mph - N/A   Mostly Cloudy
9:53 AM 80.1 °F 82.9 °F 69.1 °F 69% 29.88 in 10.0 mi South 17.3 mph 24.2 mph N/A   Mostly Cloudy
10:53 AM 82.9 °F 86.5 °F 69.1 °F 63% 29.88 in 10.0 mi SSW 19.6 mph 25.3 mph N/A   Mostly Cloudy
11:53 AM 86.0 °F 89.4 °F 68.0 °F 55% 29.88 in 10.0 mi South 20.7 mph - N/A   Mostly Cloudy
12:53 PM 88.0 °F 90.3 °F 66.0 °F 48% 29.83 in 10.0 mi South 20.7 mph 28.8 mph N/A   Mostly Cloudy
1:53 PM 82.9 °F 85.0 °F 66.0 °F 56% 29.84 in 10.0 mi South 16.1 mph - N/A   Mostly Cloudy
2:23 PM 81.0 °F 83.3 °F 66.9 °F 62% 29.80 in 10.0 mi SSE 9.2 mph - N/A Thunderstorm Thunderstorm
2:30 PM 81.0 °F 83.3 °F 66.9 °F 62% 29.80 in 10.0 mi SSE 10.4 mph - N/A   Overcast
2:50 PM 77.0 °F - 69.8 °F 78% 29.84 in 1.2 mi NW 25.3 mph 33.4 mph 0.00 in Rain Light Rain
2:53 PM 75.0 °F - 70.0 °F 84% 29.85 in 0.8 mi NW 21.9 mph 33.4 mph 0.15 in Rain Heavy Rain
2:58 PM 73.0 °F - 70.0 °F 90% 29.88 in 0.5 mi West 23.0 mph 32.2 mph 0.21 in Fog , Rain Heavy Rain
3:17 PM 73.4 °F - 66.2 °F 78% 29.84 in 4.0 mi West 24.2 mph 29.9 mph N/A Rain , Thunderstorm Light Thunderstorms and Rain
3:39 PM 72.0 °F - 69.1 °F 91% 29.83 in 2.0 mi SW 16.1 mph 32.2 mph 1.18 in Rain Heavy Rain
3:53 PM 73.0 °F - 71.1 °F 93% 29.83 in 10.0 mi WSW 6.9 mph - 1.23 in Thunderstorm Thunderstorm
3:59 PM 73.9 °F - 71.1 °F 91% 29.84 in 10.0 mi WSW 13.8 mph 20.7 mph N/A   Overcast
4:53 PM 75.9 °F - 72.0 °F 87% 29.81 in 10.0 mi South 12.7 mph - N/A   Overcast
5:53 PM 78.1 °F - 75.0 °F 90% 29.80 in 10.0 mi SSW 6.9 mph - N/A   Overcast
6:53 PM 79.0 °F - 69.1 °F 72% 29.81 in 10.0 mi WSW 11.5 mph 24.2 mph N/A   Overcast
7:42 PM 77.0 °F - 68.0 °F 74% 29.83 in 10.0 mi West 18.4 mph 26.5 mph N/A   Overcast
7:53 PM 77.0 °F - 66.9 °F 71% 29.84 in 10.0 mi WSW 16.1 mph 25.3 mph N/A   Overcast
8:53 PM 73.9 °F - 66.9 °F 79% 29.88 in 10.0 mi WNW 9.2 mph 20.7 mph N/A   Mostly Cloudy
9:15 PM 72.0 °F - 66.9 °F 84% 29.91 in 10.0 mi WNW 15.0 mph - N/A   Overcast
9:53 PM 71.1 °F - 64.0 °F 78% 29.93 in 10.0 mi West 10.4 mph - N/A   Mostly Cloudy
10:28 PM 71.1 °F - 63.0 °F 75% 29.94 in 10.0 mi WNW 9.2 mph - N/A   Overcast
10:53 PM 70.0 °F - 63.0 °F 78% 29.94 in 10.0 mi West 9.2 mph - N/A   Overcast
11:53 PM 69.1 °F - 62.1 °F 78% 29.96 in 10.0 mi WNW 9.2 mph - N/A   Overcast